Voltar ao catálogo

STARLINK-35456

AtivoComunicaçõesVLEO
NORAD 65867·PAYLOAD·🇺🇸 United States

Lançado Oct 3, 2025 de Vandenberg Space Force Base

Loading…

Próximas Passagens (próximas 24 horas)

TLE

AtualizadoSource: CelesTrak SupGP

Época: Sep 14, 2026, 14:37 UTC

1 65867C 25223P   26257.60951389  .00052815  00000+0  15602-2 0  2572
2 65867  53.1573 134.9158 0001262  74.7318 323.3766 15.34368709    17

Acompanhe STARLINK-35456 em tempo real com AllMySat

Download on the App Store